CYGNUS NG-16

Last updated on Wed Dec 15 2021 00:02:05 GMT+0000 (Coordinated Universal Time)

1 49064U 21072A 21347.92594200 .00000090 00000+0 13678-4 0 9990 2 49064 51.6455 176.3050 0006439 49.7469 310.4076 15.35225628316420

Satellite not in orbit

CYGNUS NG-16